Regional Weather Roundup
Issued by NWS

Home | Current Version | Previous Version | Graphics & Text | Print | Product List | Glossary On
Versions: 1 2 3 4 5 6 7 8 9 10 11 12 13 14 15 16 17 18 19 20 21 22 23 24 25 26 27 28 29 30 31 32 33 34 35 36 37 38 39 40 41 42 43 44 45 46 47 48 49 50
000
ASUS43 KLSX 090657
RWRMO

WEATHER SUMMARY FOR MISSOURI
NATIONAL WEATHER SERVICE SPRINGFIELD MO
100 AM CST TUE FEB 09 2016

NOTE: "FAIR" INDICATES FEW OR NO CLOUDS BELOW 12,000 FEET WITH NO
       SIGNIFICANT WEATHER AND/OR OBSTRUCTIONS TO VISIBILITY.
       CURRENT SKY AND/OR WEATHER CONDITIONS ARE NOT AVAILABLE FOR
       CHILLICOTHE AND FARMINGTON.

MOZ001>031-035>038-043-044-053-054-090800-
...NORTHERN AND WESTERN MISSOURI...

CITY           SKY/WX    TMP DP  RH WIND       PRES   REMARKS
KANSAS CTY INT CLEAR     27  17  66 NW12      30.04F WCI  17
LEE`S SUMMIT   CLEAR     26  16  65 NW9       30.03F WCI  17
ST JOSEPH      CLEAR     26  15  63 N16       30.06F WCI  14
CHILLICOTHE      N/A     22  11  62 NW14G22   30.02F WCI   9

$$
MOZ066>068-077>081-088>096-101>105-090800-
...SOUTHWEST MISSOURI...

CITY           SKY/WX    TMP DP  RH WIND       PRES   REMARKS
SPRINGFIELD    CLEAR     28  13  53 NW17G25   30.01F WCI  16
JOPLIN         CLEAR     29  17  61 NW14      30.10F WCI  18

$$
MOZ032>034-039>042-045>050-055>058-069>072-090800-
...CENTRAL MISSOURI...

CITY           SKY/WX    TMP DP  RH WIND       PRES   REMARKS
COLUMBIA       NOT AVBL
JEFFERSON CITY CLOUDY    25  13  60 NW23G31   29.97F WCI  10
ROLLA          CLOUDY    23  14  68 NW15      29.91F WCI  10
SEDALIA        MOCLDY    25  14  63 NW21G31   30.01F WCI  11

$$
MOZ051-052-059>065-090800-
...EAST CENTRAL MISSOURI...

CITY           SKY/WX    TMP DP  RH WIND       PRES   REMARKS
ST LOUIS INTL  LGT SNOW  21  14  74 NW13G23   29.92S WCI   9

$$
MOZ072>076-082>087-097>100-106>115-090800-
...SOUTH CENTRAL AND SOUTHEAST MISSOURI...

CITY           SKY/WX    TMP DP  RH WIND       PRES   REMARKS
CAPE GIRARDEAU CLOUDY    27  14  58 NW12G21   29.91F WCI  17
POPLAR BLUFF   CLOUDY    29  15  56 NW17      29.94S WCI  17
WEST PLAINS    CLOUDY    28  14  55 NW15G26   29.94S WCI  16

$$


USA.gov is the U.S. government's official web portal to all federal, state and local government web resources and services.